Regional Weather Roundup
Issued by NWS

Home | Current Version | Previous Version | Text Only | Print | Product List | Glossary On
Versions: 1 2 3 4 5 6 7 8 9 10 11 12 13 14 15 16 17 18 19 20 21 22 23 24 25 26 27 28 29 30 31 32 33 34 35 36 37 38 39 40 41 42 43 44 45 46 47 48 49 50
000
ASUS43 KTOP 041559
RWRKS

WEATHER ROUNDUP FOR KANSAS
NATIONAL WEATHER SERVICE GOODLAND KS
1100 AM CDT WED MAY 04 2016

NOTE:  "FAIR" INDICATES FEW OR NO CLOUDS BELOW 12,000 FEET WITH NO
SIGNIFICANT WEATHER AND/OR OBSTRUCTIONS TO VISIBILITY.

KSZ001>006-013>018-027>032-041>047-041700-
NORTHWEST KANSAS

CITY           SKY/WX    TMP DP  RH WIND       PRES   REMARKS
GOODLAND       SUNNY     69  40  34 N8        30.19S
HAYS           SUNNY     64  41  42 N8        30.13S
HILL CITY      SUNNY     67  40  37 N9        30.15S
RUSSELL        SUNNY     65  41  41 N12       30.10S
$$

KSZ061>065-074>080-084>089-041700-
SOUTHWEST KANSAS

CITY           SKY/WX    TMP DP  RH WIND       PRES   REMARKS
DODGE CITY     SUNNY     67  43  41 N14       30.15R
ELKHART          N/A     68  40  36 N10         N/A
GARDEN CITY    SUNNY     69  39  33 NW13      30.16R
GREAT BEND     SUNNY     63  45  51 N10       30.12R
LIBERAL        SUNNY     68  45  42 N9        30.19S
$$

KSZ066>073-081>083-090>101-041700-
SOUTHEAST KANSAS

CITY           SKY/WX    TMP DP  RH WIND       PRES   REMARKS
CHANUTE        SUNNY     68  39  34 NW17G29   30.00R
COFFEYVILLE    SUNNY     70  43  37 N16G23    29.99R
HUTCHINSON     SUNNY     68  41  37 N10G20    30.08R
MEDICINE LODGE   N/A     70  46  42 N13       30.07S
NEWTON         SUNNY     66  39  37 N15G22    30.08S
PARSONS        SUNNY     70  43  37 N15G24    30.00R
WICHITA INTL   SUNNY     68  43  40 N15       30.06R
WICHITA JABRA  SUNNY     68  42  38 N14       30.05R
WINFIELD       SUNNY     70  46  42 N10       30.29S
$$

KSZ007>012-019>026-033>040-048>060-102>105-041700-
NORTHEAST KANSAS

CITY           SKY/WX    TMP DP  RH WIND       PRES   REMARKS
CONCORDIA      SUNNY     64  35  34 N13G21    30.09R
EMPORIA        SUNNY     67  36  31 N14G23    30.02R
LAWRENCE       SUNNY     65  41  41 N17G24    30.00R HAZE
MANHATTAN      SUNNY     66  35  31 N10G20    30.05R
OLATHE IND     SUNNY    N/A N/A N/A NW17      29.99R
OLATHE EXE     SUNNY     63  38  39 N16G23    29.98R
SALINA         SUNNY     68  42  38 N14       30.08S
TOPEKA BILLARD SUNNY     66  38  35 NW15      30.02R
TOPEKA FORBES  SUNNY     67  39  35 N14       30.02R
$$



USA.gov is the U.S. government's official web portal to all federal, state and local government web resources and services.